Weather in Kizhi

Russia / Republic of Karelia     62°05′13″N   35°12′06″E
temp.,
°C
wind,
m/s
gust,
m/s
humid.,
%
clouds,
%
prec.,
mm/h
press.,
hPa
HPBL,
m
4 march, thu
thu400:00−4wnw9149533 0.5 994264
03:00−6nnw8139166 0.7 996317
06:00−9nnw569766 0.0 99778
09:00−11nw459659 0.0 99849
12:00−8wnw46934 0.0 999144
15:00−5wnw479242 0.1 999282
18:00−6nw4789100 0.1 999132
21:00−8nnw469592 0.1 100078
5 march, fri
fri500:00−10nnw469534 0.0 1001105
03:00−14nnw558959 0.0 100458
06:00−16nnw56940 0.0 100560
09:00−15nw349315 0.0 100757
12:00−11nw3491100 0.3 1008333
15:00−10nw468896 0.3 1010211
18:00−12nnw45875 0.0 101153
21:00−14nnw349230 0.0 101339
6 march, sat
sat600:00−15nw44950 0.0 101428
03:00−16wnw33930 0.0 101527
06:00−16wsw34900 0.0 101427
09:00−15wsw45940 0.0 101351
12:00−12s45928 0.0 1011132
15:00−8ssw8128924 0.0 1007289
18:00−7s10168899 0.0 1001556
21:00−6s121793100 0.9 994710
7 march, sun
sun700:00−5s111695100 1.5 988554
03:00−3sw81296100 3.5 986433
06:00−9nw61185100 0.9 986543
09:00−13wnw4581100 0.9 98871
12:00−12nw2378100 0.0 98990
15:00−11w3478100 0.0 99070
18:00−10nw5882100 0.0 992168
21:00−9n71392100 0.2 993449
8 march, mon
mon800:00−10nne101492100 0.4 995589
03:00−11nne91491100 0.6 998628
06:00−13n101591100 0.4 1001587
09:00−16n101489100 0.4 1004546
12:00−17n91391100 0.0 1008489
15:00−14n81387100 0.0 1011576
18:00−16n7119076 0.0 1014214
21:00−19n6109462 0.0 1017152